Location: Unspecified
(0.0000°N, 0.0000°E)
Time: 02:22:35
(UTC+00:00)

COSMOS 2508 - Pass Details

Date: 09 October 2020
Orbit: 1484 x 1504 km, 82.5° (Epoch: 20 October)

Event Time Altitude Azimuth Distance (km) Brightness Sun altitude
Rises 18:13:28 0° 188° (S) 4,627 ? -6.6°
Reaches altitude 10° 18:16:21 10° 190° (S) 3,648 ? -7.3°
Maximum altitude 18:25:05 72° 273° (W) 1,564 ? -9.4°
Drops below altitude 10° 18:33:51 10° 356° (N) 3,648 ? -11.6°
Sets 18:36:45 0° 359° (N) 4,627 ? -12.3°
